Wetterdaten: Freitag, 10.10.2014
Datum Zeit Temperatur Luftfeuchte Luftdruck Regen Wind Richtung Richtung Taupunkt Windchill Windben
10.10.2014 00:00 14,1 C 66 % 1017,9 hPa 0,0 l/m 0,0 km/h (0 Bft) S-SO 157 7,8 C 22,8 C 0,0 km/h (0 Bft)
10.10.2014 00:10 14,2 C 66 % 1018,1 hPa 0,0 l/m 0,0 km/h (0 Bft) S-SO 157 7,9 C 22,8 C 0,0 km/h (0 Bft)
10.10.2014 00:20 13,6 C 68 % 1018,1 hPa 0,0 l/m 0,0 km/h (0 Bft) S-SO 157 7,8 C 22,8 C 0,0 km/h (0 Bft)
10.10.2014 00:30 13,4 C 69 % 1018,4 hPa 0,0 l/m 0,0 km/h (0 Bft) S-SO 157 7,8 C 22,8 C 0,0 km/h (0 Bft)
10.10.2014 00:40 13,1 C 71 % 1018,4 hPa 0,0 l/m 0,0 km/h (0 Bft) S-SO 157 8,0 C 22,8 C 0,0 km/h (0 Bft)
10.10.2014 00:50 13,5 C 71 % 1018,4 hPa 0,0 l/m 0,0 km/h (0 Bft) S-SO 157 8,3 C 22,8 C 0,0 km/h (0 Bft)
10.10.2014 01:00 13,4 C 71 % 1018,4 hPa 0,0 l/m 0,0 km/h (0 Bft) S-SO 157 8,3 C 22,8 C 0,0 km/h (0 Bft)
10.10.2014 01:10 12,1 C 72 % 1018,5 hPa 0,0 l/m 0,0 km/h (0 Bft) S-SO 157 7,2 C 22,8 C 0,0 km/h (0 Bft)
10.10.2014 01:20 11,5 C 74 % 1018,5 hPa 0,0 l/m 0,0 km/h (0 Bft) S-SO 157 7,0 C 22,8 C 0,0 km/h (0 Bft)
10.10.2014 01:30 12,0 C 76 % 1018,3 hPa 0,0 l/m 0,0 km/h (0 Bft) S-SO 157 7,9 C 22,8 C 0,0 km/h (0 Bft)
10.10.2014 01:38 10,7 C 76 % 1018,3 hPa 0,0 l/m 0,0 km/h (0 Bft) S-SO 157 6,6 C 22,8 C 0,0 km/h (0 Bft)
10.10.2014 01:40 10,7 C 76 % 1018,3 hPa 0,0 l/m 0,0 km/h (0 Bft) S-SO 157 6,6 C 22,8 C 0,0 km/h (0 Bft)
10.10.2014 01:50 11,5 C 80 % 1018,2 hPa 0,0 l/m 0,0 km/h (0 Bft) S-SO 157 8,2 C 22,8 C 0,0 km/h (0 Bft)
10.10.2014 02:00 10,6 C 78 % 1018,2 hPa 0,0 l/m 0,0 km/h (0 Bft) S-SO 157 6,9 C 22,8 C 0,0 km/h (0 Bft)
10.10.2014 02:10 10,2 C 80 % 1018,1 hPa 0,0 l/m 0,0 km/h (0 Bft) S-SO 157 6,9 C 22,8 C 0,0 km/h (0 Bft)
10.10.2014 02:20 9,7 C 81 % 1018,1 hPa 0,0 l/m 0,0 km/h (0 Bft) S-SO 157 6,6 C 22,8 C 0,0 km/h (0 Bft)
10.10.2014 02:30 9,2 C 81 % 1017,9 hPa 0,0 l/m 0,0 km/h (0 Bft) S-SO 157 6,1 C 22,8 C 0,0 km/h (0 Bft)
10.10.2014 02:40 8,7 C 82 % 1017,9 hPa 0,0 l/m 0,0 km/h (0 Bft) S-SO 157 5,8 C 22,8 C 0,0 km/h (0 Bft)
10.10.2014 02:50 8,9 C 84 % 1018,1 hPa 0,0 l/m 0,0 km/h (0 Bft) S-SO 157 6,3 C 22,8 C 0,0 km/h (0 Bft)
10.10.2014 03:00 9,0 C 84 % 1018,1 hPa 0,0 l/m 0,0 km/h (0 Bft) S-SO 157 6,4 C 22,8 C 0,0 km/h (0 Bft)
10.10.2014 03:10 9,1 C 85 % 1017,9 hPa 0,0 l/m 0,0 km/h (0 Bft) S-SO 157 6,7 C 22,8 C 0,0 km/h (0 Bft)
10.10.2014 03:20 8,3 C 85 % 1017,9 hPa 0,0 l/m 0,0 km/h (0 Bft) S-SO 157 5,9 C 22,8 C 0,0 km/h (0 Bft)
10.10.2014 03:30 9,0 C 87 % 1018,1 hPa 0,0 l/m 0,0 km/h (0 Bft) S-SO 157 7,0 C 22,8 C 0,0 km/h (0 Bft)
10.10.2014 03:40 8,5 C 86 % 1018,1 hPa 0,0 l/m 0,0 km/h (0 Bft) S-SO 157 6,3 C 22,8 C 0,0 km/h (0 Bft)
10.10.2014 03:50 8,3 C 86 % 1018,1 hPa 0,0 l/m 0,0 km/h (0 Bft) S-SO 157 6,1 C 22,8 C 0,0 km/h (0 Bft)
10.10.2014 04:00 8,6 C 87 % 1018,1 hPa 0,0 l/m 0,0 km/h (0 Bft) S-SO 157 6,6 C 22,8 C 0,0 km/h (0 Bft)
10.10.2014 04:10 7,9 C 87 % 1017,9 hPa 0,0 l/m 0,0 km/h (0 Bft) S-SO 157 5,9 C 22,8 C 0,0 km/h (0 Bft)
10.10.2014 04:20 7,7 C 87 % 1017,9 hPa 0,0 l/m 0,0 km/h (0 Bft) S-SO 157 5,7 C 22,8 C 0,0 km/h (0 Bft)
10.10.2014 04:30 7,8 C 87 % 1017,8 hPa 0,0 l/m 0,0 km/h (0 Bft) S-SO 157 5,8 C 22,8 C 0,0 km/h (0 Bft)
10.10.2014 04:38 8,1 C 87 % 1017,8 hPa 0,0 l/m 0,0 km/h (0 Bft) S-SO 157 6,1 C 22,8 C 0,0 km/h (0 Bft)
10.10.2014 04:40 8,1 C 87 % 1017,8 hPa 0,0 l/m 0,0 km/h (0 Bft) S-SO 157 6,1 C 22,8 C 0,0 km/h (0 Bft)
10.10.2014 04:50 8,1 C 88 % 1017,9 hPa 0,0 l/m 0,0 km/h (0 Bft) S-SO 157 6,2 C 22,8 C 0,0 km/h (0 Bft)
10.10.2014 05:00 8,1 C 88 % 1017,9 hPa 0,0 l/m 0,0 km/h (0 Bft) S-SO 157 6,2 C 22,8 C 0,0 km/h (0 Bft)
10.10.2014 05:10 8,2 C 88 % 1017,8 hPa 0,0 l/m 0,0 km/h (0 Bft) S-SO 157 6,3 C 22,8 C 0,0 km/h (0 Bft)
10.10.2014 05:20 8,8 C 88 % 1017,8 hPa 0,0 l/m 0,0 km/h (0 Bft) S-SO 157 6,9 C 22,8 C 0,0 km/h (0 Bft)
10.10.2014 05:30 9,5 C 88 % 1017,8 hPa 0,0 l/m 0,0 km/h (0 Bft) S-SO 157 7,6 C 22,8 C 0,0 km/h (0 Bft)
10.10.2014 05:40 10,0 C 88 % 1017,8 hPa 0,0 l/m 0,0 km/h (0 Bft) S-SO 157 8,1 C 22,8 C 0,0 km/h (0 Bft)
10.10.2014 05:50 9,8 C 88 % 1017,8 hPa 0,0 l/m 0,0 km/h (0 Bft) S-SO 157 7,9 C 22,8 C 0,0 km/h (0 Bft)
10.10.2014 06:00 9,9 C 87 % 1017,8 hPa 0,0 l/m 0,0 km/h (0 Bft) S-SO 157 7,8 C 22,8 C 0,0 km/h (0 Bft)
10.10.2014 06:10 10,0 C 87 % 1017,8 hPa 0,0 l/m 0,0 km/h (0 Bft) S-SO 157 7,9 C 22,8 C 0,0 km/h (0 Bft)
10.10.2014 06:20 9,9 C 87 % 1017,8 hPa 0,0 l/m 0,0 km/h (0 Bft) S-SO 157 7,8 C 22,8 C 0,0 km/h (0 Bft)
10.10.2014 06:30 10,0 C 87 % 1017,8 hPa 0,0 l/m 0,0 km/h (0 Bft) S-SO 157 7,9 C 22,8 C 0,0 km/h (0 Bft)
10.10.2014 06:40 10,0 C 86 % 1017,8 hPa 0,0 l/m 0,0 km/h (0 Bft) S-SO 157 7,8 C 22,8 C 0,0 km/h (0 Bft)
10.10.2014 06:50 10,0 C 86 % 1017,9 hPa 0,0 l/m 0,0 km/h (0 Bft) S-SO 157 7,8 C 22,8 C 0,0 km/h (0 Bft)
10.10.2014 07:00 10,2 C 86 % 1017,9 hPa 0,0 l/m 0,0 km/h (0 Bft) S-SO 157 8,0 C 22,8 C 0,0 km/h (0 Bft)
10.10.2014 07:10 10,0 C 86 % 1018,0 hPa 0,0 l/m 0,0 km/h (0 Bft) S-SO 157 7,8 C 22,8 C 0,0 km/h (0 Bft)
10.10.2014 07:20 9,8 C 86 % 1018,0 hPa 0,0 l/m 0,0 km/h (0 Bft) S-SO 157 7,6 C 22,8 C 0,0 km/h (0 Bft)
10.10.2014 07:30 9,9 C 86 % 1018,2 hPa 0,0 l/m 0,0 km/h (0 Bft) S-SO 157 7,7 C 22,8 C 0,0 km/h (0 Bft)
10.10.2014 07:38 9,9 C 86 % 1018,2 hPa 0,0 l/m 0,0 km/h (0 Bft) S-SO 157 7,7 C 22,8 C 0,0 km/h (0 Bft)
10.10.2014 07:40 9,9 C 86 % 1018,2 hPa 0,0 l/m 0,0 km/h (0 Bft) S-SO 157 7,7 C 22,8 C 0,0 km/h (0 Bft)
10.10.2014 07:50 9,9 C 87 % 1018,7 hPa 0,0 l/m 0,0 km/h (0 Bft) S-SO 157 7,8 C 22,8 C 0,0 km/h (0 Bft)
10.10.2014 08:00 9,9 C 87 % 1018,7 hPa 0,0 l/m 0,0 km/h (0 Bft) S-SO 157 7,8 C 22,8 C 0,0 km/h (0 Bft)
10.10.2014 08:10 10,3 C 87 % 1018,8 hPa 0,0 l/m 0,0 km/h (0 Bft) S-SO 157 8,2 C 22,8 C 0,0 km/h (0 Bft)
10.10.2014 08:20 10,1 C 86 % 1018,8 hPa 0,0 l/m 0,0 km/h (0 Bft) S-SO 157 7,9 C 22,8 C 0,0 km/h (0 Bft)
10.10.2014 08:30 10,2 C 87 % 1019,2 hPa 0,0 l/m 0,0 km/h (0 Bft) S-SO 157 8,1 C 22,8 C 0,0 km/h (0 Bft)
10.10.2014 08:40 10,6 C 87 % 1019,2 hPa 0,0 l/m 0,0 km/h (0 Bft) S-SO 157 8,5 C 22,8 C 0,0 km/h (0 Bft)
10.10.2014 08:50 11,7 C 86 % 1019,4 hPa 0,0 l/m 0,0 km/h (0 Bft) S-SO 157 9,4 C 22,8 C 0,0 km/h (0 Bft)
10.10.2014 09:00 11,9 C 85 % 1019,4 hPa 0,0 l/m 0,0 km/h (0 Bft) S-SO 157 9,5 C 22,8 C 0,0 km/h (0 Bft)
10.10.2014 09:10 12,5 C 84 % 1019,6 hPa 0,0 l/m 0,0 km/h (0 Bft) S-SO 157 9,9 C 22,8 C 0,0 km/h (0 Bft)
10.10.2014 09:20 12,3 C 83 % 1019,6 hPa 0,0 l/m 0,0 km/h (0 Bft) S-SO 157 9,5 C 22,8 C 0,0 km/h (0 Bft)
10.10.2014 09:30 12,2 C 83 % 1019,6 hPa 0,0 l/m 0,0 km/h (0 Bft) S-SO 157 9,4 C 22,8 C 0,0 km/h (0 Bft)
10.10.2014 09:40 12,9 C 81 % 1019,6 hPa 0,0 l/m 0,0 km/h (0 Bft) S-SO 157 9,7 C 22,8 C 0,0 km/h (0 Bft)
10.10.2014 09:50 13,3 C 80 % 1019,6 hPa 0,0 l/m 0,0 km/h (0 Bft) S-SO 157 9,9 C 22,8 C 0,0 km/h (0 Bft)
10.10.2014 10:00 14,1 C 78 % 1019,6 hPa 0,0 l/m 0,0 km/h (0 Bft) S-SO 157 10,3 C 22,8 C 0,0 km/h (0 Bft)
10.10.2014 10:10 14,6 C 77 % 1019,8 hPa 0,0 l/m 0,0 km/h (0 Bft) S-SO 157 10,6 C 22,8 C 0,0 km/h (0 Bft)
10.10.2014 10:20 15,7 C 75 % 1019,8 hPa 0,0 l/m 0,0 km/h (0 Bft) S-SO 157 11,3 C 22,8 C 0,0 km/h (0 Bft)
10.10.2014 10:30 16,5 C 69 % 1020,2 hPa 0,0 l/m 0,0 km/h (0 Bft) S-SO 157 10,8 C 22,8 C 0,0 km/h (0 Bft)
10.10.2014 10:38 16,5 C 69 % 1020,2 hPa 0,0 l/m 0,0 km/h (0 Bft) S-SO 157 10,8 C 22,8 C 0,0 km/h (0 Bft)
10.10.2014 10:40 16,5 C 69 % 1020,2 hPa 0,0 l/m 0,0 km/h (0 Bft) S-SO 157 10,8 C 22,8 C 0,0 km/h (0 Bft)
10.10.2014 10:50 17,0 C 68 % 1020,6 hPa 0,0 l/m 0,0 km/h (0 Bft) S-SO 157 11,0 C 22,8 C 0,0 km/h (0 Bft)
10.10.2014 11:00 17,6 C 65 % 1020,6 hPa 0,0 l/m 0,0 km/h (0 Bft) S-SO 157 10,9 C 22,8 C 0,0 km/h (0 Bft)
10.10.2014 11:10 18,0 C 59 % 1020,6 hPa 0,0 l/m 0,0 km/h (0 Bft) S-SO 157 9,9 C 22,8 C 0,0 km/h (0 Bft)
10.10.2014 11:20 19,8 C 53 % 1020,6 hPa 0,0 l/m 0,0 km/h (0 Bft) S-SO 157 9,9 C 22,8 C 0,0 km/h (0 Bft)
10.10.2014 11:30 20,7 C 50 % 1020,6 hPa 0,0 l/m 0,0 km/h (0 Bft) S-SO 157 9,9 C 22,8 C 0,0 km/h (0 Bft)
10.10.2014 11:40 20,0 C 53 % 1020,6 hPa 0,0 l/m 0,0 km/h (0 Bft) S-SO 157 10,1 C 22,8 C 0,0 km/h (0 Bft)
10.10.2014 11:50 20,4 C 51 % 1020,4 hPa 0,0 l/m 0,0 km/h (0 Bft) S-SO 157 9,9 C 22,8 C 0,0 km/h (0 Bft)
10.10.2014 12:00 21,1 C 49 % 1020,4 hPa 0,0 l/m 0,0 km/h (0 Bft) S-SO 157 10,0 C 22,8 C 0,0 km/h (0 Bft)
10.10.2014 12:10 21,8 C 47 % 1020,4 hPa 0,0 l/m 0,0 km/h (0 Bft) S-SO 157 10,0 C 22,8 C 0,0 km/h (0 Bft)
10.10.2014 12:20 21,9 C 46 % 1020,4 hPa 0,0 l/m 0,0 km/h (0 Bft) S-SO 157 9,7 C 22,8 C 0,0 km/h (0 Bft)
10.10.2014 12:30 22,3 C 45 % 1020,4 hPa 0,0 l/m 0,0 km/h (0 Bft) S-SO 157 9,8 C 22,8 C 0,0 km/h (0 Bft)
10.10.2014 12:40 22,4 C 46 % 1020,4 hPa 0,0 l/m 0,0 km/h (0 Bft) S-SO 157 10,2 C 22,8 C 0,0 km/h (0 Bft)
10.10.2014 12:50 22,6 C 46 % 1020,2 hPa 0,0 l/m 0,0 km/h (0 Bft) S-SO 157 10,4 C 22,8 C 0,0 km/h (0 Bft)
10.10.2014 13:00 21,3 C 48 % 1020,2 hPa 0,0 l/m 0,0 km/h (0 Bft) S-SO 157 9,8 C 22,8 C 0,0 km/h (0 Bft)
10.10.2014 13:10 21,4 C 49 % 1020,1 hPa 0,0 l/m 0,0 km/h (0 Bft) S-SO 157 10,2 C 22,8 C 0,0 km/h (0 Bft)
10.10.2014 13:20 23,0 C 46 % 1020,1 hPa 0,0 l/m 0,0 km/h (0 Bft) S-SO 157 10,7 C 22,8 C 0,0 km/h (0 Bft)
10.10.2014 13:30 22,0 C 47 % 1019,9 hPa 0,0 l/m 0,0 km/h (0 Bft) S-SO 157 10,2 C 22,8 C 0,0 km/h (0 Bft)
10.10.2014 13:40 22,2 C 47 % 1019,9 hPa 0,0 l/m 0,0 km/h (0 Bft) S-SO 157 10,3 C 22,8 C 0,0 km/h (0 Bft)
10.10.2014 13:50 21,9 C 48 % 1019,8 hPa 0,0 l/m 0,0 km/h (0 Bft) S-SO 157 10,4 C 22,8 C 0,0 km/h (0 Bft)
10.10.2014 14:00 21,9 C 47 % 1019,8 hPa 0,0 l/m 0,0 km/h (0 Bft) S-SO 157 10,1 C 22,8 C 0,0 km/h (0 Bft)
10.10.2014 14:10 22,2 C 47 % 1019,7 hPa 0,0 l/m 0,0 km/h (0 Bft) S-SO 157 10,3 C 22,8 C 0,0 km/h (0 Bft)
10.10.2014 14:20 22,2 C 47 % 1019,7 hPa 0,0 l/m 0,0 km/h (0 Bft) S-SO 157 10,3 C 22,8 C 0,0 km/h (0 Bft)
10.10.2014 14:30 21,0 C 53 % 1019,7 hPa 0,0 l/m 0,0 km/h (0 Bft) S-SO 157 11,0 C 22,8 C 0,0 km/h (0 Bft)
10.10.2014 14:40 22,6 C 49 % 1019,7 hPa 0,0 l/m 0,0 km/h (0 Bft) S-SO 157 11,3 C 22,8 C 0,0 km/h (0 Bft)
10.10.2014 14:50 22,7 C 48 % 1019,6 hPa 0,0 l/m 0,0 km/h (0 Bft) S-SO 157 11,1 C 22,8 C 0,0 km/h (0 Bft)
10.10.2014 15:00 22,8 C 48 % 1019,6 hPa 0,0 l/m 0,0 km/h (0 Bft) S-SO 157 11,2 C 22,8 C 0,0 km/h (0 Bft)
10.10.2014 15:10 22,3 C 49 % 1019,6 hPa 0,0 l/m 0,0 km/h (0 Bft) S-SO 157 11,1 C 22,8 C 0,0 km/h (0 Bft)
10.10.2014 15:20 22,4 C 49 % 1019,6 hPa 0,0 l/m 0,0 km/h (0 Bft) S-SO 157 11,2 C 22,8 C 0,0 km/h (0 Bft)
10.10.2014 15:30 20,4 C 55 % 1019,6 hPa 0,0 l/m 0,0 km/h (0 Bft) S-SO 157 11,1 C 22,8 C 0,0 km/h (0 Bft)
10.10.2014 15:40 20,5 C 55 % 1019,6 hPa 0,0 l/m 0,0 km/h (0 Bft) S-SO 157 11,1 C 22,8 C 0,0 km/h (0 Bft)
10.10.2014 15:50 20,8 C 55 % 1019,4 hPa 0,0 l/m 0,0 km/h (0 Bft) S-SO 157 11,4 C 22,8 C 0,0 km/h (0 Bft)
10.10.2014 16:00 20,4 C 56 % 1019,4 hPa 0,0 l/m 0,0 km/h (0 Bft) S-SO 157 11,3 C 22,8 C 0,0 km/h (0 Bft)
10.10.2014 16:10 20,0 C 58 % 1019,2 hPa 0,0 l/m 0,0 km/h (0 Bft) S-SO 157 11,5 C 22,8 C 0,0 km/h (0 Bft)
10.10.2014 16:20 19,6 C 60 % 1019,2 hPa 0,0 l/m 0,0 km/h (0 Bft) S-SO 157 11,6 C 22,8 C 0,0 km/h (0 Bft)
10.10.2014 16:28 19,4 C 61 % 1019,4 hPa 0,0 l/m 0,0 km/h (0 Bft) S-SO 157 11,7 C 22,8 C 0,0 km/h (0 Bft)
10.10.2014 16:30 19,4 C 61 % 1019,4 hPa 0,0 l/m 0,0 km/h (0 Bft) S-SO 157 11,7 C 22,8 C 0,0 km/h (0 Bft)
10.10.2014 16:40 19,5 C 61 % 1019,4 hPa 0,0 l/m 0,0 km/h (0 Bft) S-SO 157 11,8 C 22,8 C 0,0 km/h (0 Bft)
10.10.2014 16:50 19,3 C 62 % 1019,3 hPa 0,0 l/m 0,0 km/h (0 Bft) S-SO 157 11,8 C 22,8 C 0,0 km/h (0 Bft)
10.10.2014 17:00 19,1 C 60 % 1019,3 hPa 0,0 l/m 0,0 km/h (0 Bft) S-SO 157 11,1 C 22,8 C 0,0 km/h (0 Bft)
10.10.2014 17:10 18,9 C 61 % 1019,2 hPa 0,0 l/m 0,0 km/h (0 Bft) S-SO 157 11,2 C 22,8 C 0,0 km/h (0 Bft)
10.10.2014 17:20 18,6 C 63 % 1019,2 hPa 0,0 l/m 0,0 km/h (0 Bft) S-SO 157 11,4 C 22,8 C 0,0 km/h (0 Bft)
10.10.2014 17:30 18,4 C 64 % 1018,8 hPa 0,0 l/m 0,0 km/h (0 Bft) S-SO 157 11,5 C 22,8 C 0,0 km/h (0 Bft)
10.10.2014 17:40 17,8 C 66 % 1018,8 hPa 0,0 l/m 0,0 km/h (0 Bft) S-SO 157 11,4 C 22,8 C 0,0 km/h (0 Bft)
10.10.2014 17:50 17,7 C 67 % 1019,2 hPa 0,0 l/m 0,0 km/h (0 Bft) S-SO 157 11,5 C 22,8 C 0,0 km/h (0 Bft)
10.10.2014 18:00 17,5 C 68 % 1019,2 hPa 0,0 l/m 0,0 km/h (0 Bft) S-SO 157 11,5 C 22,8 C 0,0 km/h (0 Bft)
10.10.2014 18:10 17,2 C 69 % 1019,0 hPa 0,0 l/m 0,0 km/h (0 Bft) S-SO 157 11,5 C 22,8 C 0,0 km/h (0 Bft)
10.10.2014 18:20 16,7 C 70 % 1019,0 hPa 0,0 l/m 0,0 km/h (0 Bft) S-SO 157 11,2 C 22,8 C 0,0 km/h (0 Bft)
10.10.2014 18:30 16,3 C 71 % 1018,8 hPa 0,0 l/m 0,0 km/h (0 Bft) S-SO 157 11,0 C 22,8 C 0,0 km/h (0 Bft)
10.10.2014 18:40 15,7 C 73 % 1018,8 hPa 0,0 l/m 0,0 km/h (0 Bft) S-SO 157 10,9 C 22,8 C 0,0 km/h (0 Bft)
10.10.2014 18:50 15,3 C 75 % 1018,9 hPa 0,0 l/m 0,0 km/h (0 Bft) S-SO 157 10,9 C 22,8 C 0,0 km/h (0 Bft)
10.10.2014 19:00 14,2 C 76 % 1018,9 hPa 0,0 l/m 0,0 km/h (0 Bft) S-SO 157 10,0 C 22,8 C 0,0 km/h (0 Bft)
10.10.2014 19:10 14,6 C 78 % 1018,9 hPa 0,0 l/m 0,0 km/h (0 Bft) S-SO 157 10,8 C 22,8 C 0,0 km/h (0 Bft)
10.10.2014 19:20 14,5 C 79 % 1018,9 hPa 0,0 l/m 0,0 km/h (0 Bft) S-SO 157 10,9 C 22,8 C 0,0 km/h (0 Bft)
10.10.2014 19:28 14,1 C 80 % 1018,9 hPa 0,0 l/m 0,0 km/h (0 Bft) S-SO 157 10,7 C 22,8 C 0,0 km/h (0 Bft)
10.10.2014 19:30 14,1 C 80 % 1018,9 hPa 0,0 l/m 0,0 km/h (0 Bft) S-SO 157 10,7 C 22,8 C 0,0 km/h (0 Bft)
10.10.2014 19:40 13,2 C 80 % 1018,9 hPa 0,0 l/m 0,0 km/h (0 Bft) S-SO 157 9,8 C 22,8 C 0,0 km/h (0 Bft)
10.10.2014 19:50 13,6 C 83 % 1018,8 hPa 0,0 l/m 0,0 km/h (0 Bft) S-SO 157 10,8 C 22,8 C 0,0 km/h (0 Bft)
10.10.2014 20:00 13,0 C 82 % 1018,8 hPa 0,0 l/m 0,0 km/h (0 Bft) S-SO 157 10,0 C 22,8 C 0,0 km/h (0 Bft)
10.10.2014 20:10 13,1 C 83 % 1018,9 hPa 0,0 l/m 0,0 km/h (0 Bft) S-SO 157 10,3 C 22,8 C 0,0 km/h (0 Bft)
10.10.2014 20:20 13,2 C 83 % 1018,9 hPa 0,0 l/m 0,0 km/h (0 Bft) S-SO 157 10,4 C 22,8 C 0,0 km/h (0 Bft)
10.10.2014 20:30 13,1 C 83 % 1018,6 hPa 0,0 l/m 0,0 km/h (0 Bft) S-SO 157 10,3 C 22,8 C 0,0 km/h (0 Bft)
10.10.2014 20:40 13,0 C 84 % 1018,6 hPa 0,0 l/m 0,0 km/h (0 Bft) S-SO 157 10,4 C 22,8 C 0,0 km/h (0 Bft)
10.10.2014 20:50 12,9 C 86 % 1018,3 hPa 0,0 l/m 0,0 km/h (0 Bft) S-SO 157 10,6 C 22,8 C 0,0 km/h (0 Bft)
10.10.2014 21:00 12,8 C 86 % 1018,3 hPa 0,0 l/m 0,0 km/h (0 Bft) S-SO 157 10,5 C 22,8 C 0,0 km/h (0 Bft)
10.10.2014 21:10 12,9 C 86 % 1018,4 hPa 0,0 l/m 0,0 km/h (0 Bft) S-SO 157 10,6 C 22,8 C 0,0 km/h (0 Bft)
10.10.2014 21:20 13,2 C 86 % 1018,4 hPa 0,0 l/m 0,0 km/h (0 Bft) S-SO 157 10,9 C 22,8 C 0,0 km/h (0 Bft)
10.10.2014 21:30 13,2 C 86 % 1018,1 hPa 0,0 l/m 0,0 km/h (0 Bft) S-SO 157 10,9 C 22,8 C 0,0 km/h (0 Bft)
10.10.2014 21:40 13,2 C 86 % 1018,1 hPa 0,0 l/m 0,0 km/h (0 Bft) S-SO 157 10,9 C 22,8 C 0,0 km/h (0 Bft)
10.10.2014 21:50 13,0 C 86 % 1018,0 hPa 0,0 l/m 0,0 km/h (0 Bft) S-SO 157 10,7 C 22,8 C 0,0 km/h (0 Bft)
10.10.2014 22:00 12,7 C 87 % 1018,0 hPa 0,0 l/m 0,0 km/h (0 Bft) S-SO 157 10,6 C 22,8 C 0,0 km/h (0 Bft)
10.10.2014 22:10 11,9 C 87 % 1017,7 hPa 0,0 l/m 0,0 km/h (0 Bft) S-SO 157 9,8 C 22,8 C 0,0 km/h (0 Bft)
10.10.2014 22:20 12,2 C 88 % 1017,7 hPa 0,0 l/m 0,0 km/h (0 Bft) S-SO 157 10,3 C 22,8 C 0,0 km/h (0 Bft)
10.10.2014 22:28 11,6 C 88 % 1017,7 hPa 0,0 l/m 0,0 km/h (0 Bft) S-SO 157 9,7 C 22,8 C 0,0 km/h (0 Bft)
10.10.2014 22:30 11,6 C 88 % 1017,7 hPa 0,0 l/m 0,0 km/h (0 Bft) S-SO 157 9,7 C 22,8 C 0,0 km/h (0 Bft)
10.10.2014 22:40 12,1 C 88 % 1017,7 hPa 0,0 l/m 0,0 km/h (0 Bft) S-SO 157 10,2 C 22,8 C 0,0 km/h (0 Bft)
10.10.2014 22:50 12,1 C 89 % 1017,6 hPa 0,0 l/m 0,0 km/h (0 Bft) S-SO 157 10,3 C 22,8 C 0,0 km/h (0 Bft)
10.10.2014 23:00 11,5 C 89 % 1017,6 hPa 0,0 l/m 0,0 km/h (0 Bft) S-SO 157 9,8 C 22,8 C 0,0 km/h (0 Bft)
10.10.2014 23:10 11,3 C 89 % 1017,2 hPa 0,0 l/m 0,0 km/h (0 Bft) S-SO 157 9,6 C 22,8 C 0,0 km/h (0 Bft)
10.10.2014 23:20 11,1 C 89 % 1017,2 hPa 0,0 l/m 0,0 km/h (0 Bft) S-SO 157 9,4 C 22,8 C 0,0 km/h (0 Bft)
10.10.2014 23:30 10,6 C 89 % 1017,1 hPa 0,0 l/m 0,0 km/h (0 Bft) S-SO 157 8,9 C 22,8 C 0,0 km/h (0 Bft)
10.10.2014 23:40 10,8 C 89 % 1017,1 hPa 0,0 l/m 0,0 km/h (0 Bft) S-SO 157 9,1 C 22,8 C 0,0 km/h (0 Bft)
10.10.2014 23:50 10,1 C 89 % 1016,8 hPa 0,0 l/m 0,0 km/h (0 Bft) S-SO 157 8,4 C 22,8 C 0,0 km/h (0 Bft)
_ Min-Zeit 04:20 12:30 23:50 - 23:50 - - 04:20 23:50 23:50
Minimum _ 7,7 C 45 % 1016,8 hPa - 0,0 km/h (0 Bft) - - 5,7 C 22,8 C 0,0 km/h (0 Bft)
_ Max-Zeit 13:20 23:50 11:40 23:50 23:50 - - 16:50 23:50 23:50
Maximum _ 23,0 C 89 % 1020,6 hPa 0,0 l/m 0,0 km/h
S-SO (0 Bft)
- - 11,8 C 22,8 C 0,0 km/h
S-SO (0 Bft)
Durchschnitt _ 14,3 C 74 % 1018,8 hPa #0,0 l/m 0,0 km/h (0 Bft) - - - 9,3 C 22,8 C 0,0 km/h (0 Bft)